DW9167 Weather Reports


Display with metric or nautical units.
time (UTC)temp
F
wind
direction
speed
MPH
gust
MPH
rain 1hr
in
rain 24hr
in
rain mn
in
humidity
%
barometer
mb
20260504042824 64 174 1.0 8.0 0.00 0.00 0.00 69 1011.1
20260504041824 65 157 0.0 0.0 0.00 0.00 0.00 68 1011.4
20260504040824 65 182 0.0 3.0 0.00 0.00 0.00 67 1011.1
20260504035922 65 180 0.0 1.0 0.00 0.00 0.00 65 1011.1
20260504034923 65 199 0.0 1.0 0.00 0.00 0.00 64 1011.1
20260504033923 64 180 1.0 4.0 0.00 0.00 0.00 63 1011.1
20260504032925 63 180 0.0 0.0 0.00 0.00 0.00 62 1011.1
20260504031023 65 180 0.0 0.0 0.00 0.00 0.00 60 1011.1
20260504030023 65 180 0.0 0.0 0.00 0.00 0.00 58 1011.1
20260504025026 66 180 0.0 0.0 0.00 0.00 0.00 56 1010.7
20260504023023 66 180 0.0 2.0 0.00 0.00 0.00 52 1010.7
20260504022024 67 180 0.0 1.0 0.00 0.00 0.00 52 1010.7
20260504021123 68 180 0.0 0.0 0.00 0.00 0.00 53 1010.7
20260504020123 68 157 0.0 0.0 0.00 0.00 0.00 53 1010.1
20260504020025 68 157 0.0 0.0 0.00 0.00 0.00 53 1010.1
20260504014122 69 180 0.0 0.0 0.00 0.00 0.00 51 1010.1
20260504013124 69 180 0.0 0.0 0.00 0.00 0.00 50 1010.1
20260504012123 70 180 0.0 0.0 0.00 0.00 0.00 49 1010.1
20260504011222 71 157 0.0 0.0 0.00 0.00 0.00 48 1010.1
20260504010223 71 180 0.0 1.0 0.00 0.00 0.00 47 1009.7
20260504005226 72 157 0.0 0.0 0.00 0.00 0.00 46 1009.7
20260504004224 72 169 0.0 0.0 0.00 0.00 0.00 45 1010.1
20260504003223 73 176 3.0 6.0 0.00 0.00 0.00 43 1009.7
20260504001325 75 92 0.0 0.0 0.00 0.00 0.00 42 1010.1
20260504000324 75 162 0.0 2.0 0.00 0.00 0.00 42 1010.2
20260503234423 77 181 3.0 7.0 0.00 0.00 0.00 41 1010.1
20260503232425 76 180 0.0 2.0 0.00 0.00 0.00 41 1010.4
20260503231423 76 180 2.0 5.0 0.00 0.00 0.00 40 1010.4
20260503230522 76 168 1.0 5.0 0.00 0.00 0.00 38 1010.1
20260503225525 78 175 0.0 5.0 0.00 0.00 0.00 37 1010.4
20260503224524 79 157 1.0 2.0 0.00 0.00 0.00 37 1010.1
20260503223523 80 173 2.0 6.0 0.00 0.00 0.00 37 1010.4
20260503222523 80 180 2.0 5.0 0.00 0.00 0.00 37 1010.4
20260503220526 80 180 2.0 4.0 0.00 0.00 0.00 36 1010.1
20260503215524 80 180 2.0 5.0 0.00 0.00 0.00 37 1010.4
20260503212624 80 179 2.0 5.0 0.00 0.00 0.00 35 1011.1
20260503211622 80 125 2.0 4.0 0.00 0.00 0.00 38 1011.1
20260503210623 80 178 0.0 2.0 0.00 0.00 0.00 39 1011.4
20260503205624 79 161 0.0 2.0 0.00 0.00 0.00 38 1011.4
20260503204624 79 165 2.0 7.0 0.00 0.00 0.00 34 1011.1
20260503203722 80 112 0.0 0.0 0.00 0.00 0.00 37 1011.4
20260503202723 79 270 0.0 2.0 0.00 0.00 0.00 38 1012.1
20260503201724 79 159 0.0 3.0 0.00 0.00 0.00 38 1012.4
20260503200725 79 180 0.0 4.0 0.00 0.00 0.00 37 1012.4
20260503195823 79 168 2.0 6.0 0.00 0.00 0.00 34 1012.4
20260503194922 78 135 1.0 3.0 0.00 0.00 0.00 38 1012.8
20260503192926 79 176 0.0 2.0 0.00 0.00 0.00 38 1012.8
20260503192022 78 181 0.0 3.0 0.00 0.00 0.00 40 1013.2
20260503191024 78 171 2.0 5.0 0.00 0.00 0.00 39 1013.5
20260503190022 78 146 2.0 5.0 0.00 0.00 0.00 39 1013.2
20260503185023 78 135 0.0 0.0 0.00 0.00 0.00 39 1013.5
20260503183024 77 177 2.0 7.0 0.00 0.00 0.00 39 1014.2
20260503182025 78 142 1.0 3.0 0.00 0.00 0.00 40 1014.2
20260503181026 78 179 0.0 4.0 0.00 0.00 0.00 41 1014.2
20260503175125 77 164 2.0 6.0 0.00 0.00 0.00 42 1014.9
20260503174123 76 170 3.0 8.0 0.00 0.00 0.00 43 1015.2
20260503172222 76 135 0.0 2.0 0.00 0.00 0.00 45 1015.2
20260503171224 76 180 0.0 0.0 0.00 0.00 0.00 43 1015.6
20260503170225 76 170 4.0 7.0 0.00 0.00 0.00 45 1015.6
20260503130922 55 337 0.0 0.0 0.00 0.00 0.00 98 1016.9
20260503110123 49 45 0.0 0.0 0.00 0.00 0.00 73 1017.3
20260503090421 49 45 0.0 0.0 0.00 0.00 0.00 91 1016.6
20260503081423 50 45 0.0 0.0 0.00 0.00 0.00 92 1016.6
20260503072423 51 45 0.0 0.0 0.00 0.00 0.00 95 1016.9
20260503070522 52 45 0.0 0.0 0.00 0.00 0.00 97 1016.9